SKW2258 KSAN-KRNO

Flight info

Callsign SKW2258
Flight time N/A
Altitude 32000
Route PADRZ2 EHF SHERF DNGLE1
Aircraft E75L/M-SDE3GILORVW/S

Departure

Time 2026-05-04 00:00
Airport San Diego International Airport (KSAN)

Arrival

Time N/A
Airport Reno Tahoe International Airport (KRNO)
Time Latitude Longitude Altitude Speed Heading
2026-05-03 23:36 32.73381 -117.19811 18 ft 0 kts 207°
2026-05-03 23:45 32.73394 -117.19804 20 ft 2 kts 205°
2026-05-03 23:45 32.73409 -117.19796 21 ft 2 kts 201°
2026-05-03 23:45 32.73424 -117.19790 21 ft 2 kts 194°
2026-05-03 23:45 32.73441 -117.19788 23 ft 2 kts 174°
2026-05-03 23:46 32.73454 -117.19797 23 ft 2 kts 121°
2026-05-03 23:46 32.73457 -117.19804 23 ft 0 kts 108°
2026-05-03 23:47 32.73457 -117.19802 23 ft 0 kts 108°
2026-05-03 23:48 32.73450 -117.19776 22 ft 9 kts 107°
2026-05-03 23:48 32.73422 -117.19658 21 ft 21 kts 106°
2026-05-03 23:48 32.73376 -117.19469 21 ft 25 kts 107°
2026-05-03 23:48 32.73325 -117.19257 19 ft 28 kts 106°
2026-05-03 23:49 32.73271 -117.19038 20 ft 28 kts 106°
2026-05-03 23:49 32.73217 -117.18814 21 ft 29 kts 105°
2026-05-03 23:49 32.73163 -117.18596 17 ft 28 kts 105°
2026-05-03 23:49 32.73107 -117.18361 16 ft 30 kts 107°
2026-05-03 23:50 32.73046 -117.18113 12 ft 32 kts 107°
2026-05-03 23:50 32.73015 -117.17982 14 ft 24 kts 106°
2026-05-03 23:50 32.72967 -117.17786 11 ft 9 kts 106°
2026-05-03 23:50 32.72966 -117.17780 12 ft 0 kts 106°
2026-05-03 23:51 32.72962 -117.17765 11 ft 4 kts 105°
2026-05-03 23:51 32.72960 -117.17754 10 ft 0 kts 105°
2026-05-03 23:52 32.72959 -117.17751 10 ft 2 kts 105°
2026-05-03 23:52 32.72951 -117.17714 11 ft 7 kts 103°
2026-05-03 23:52 32.72950 -117.17681 11 ft 0 kts 76°
2026-05-03 23:58 32.72952 -117.17674 11 ft 3 kts 75°
2026-05-03 23:58 32.72981 -117.17622 14 ft 12 kts 32°
2026-05-03 23:58 32.73040 -117.17659 13 ft 4 kts 286°
2026-05-03 23:58 32.73041 -117.17662 13 ft 0 kts 286°
2026-05-03 23:59 32.73043 -117.17668 12 ft 6 kts 286°
2026-05-03 23:59 32.73132 -117.18036 13 ft 89 kts 286°
2026-05-03 23:59 32.73377 -117.19033 134 ft 152 kts 287°
2026-05-04 00:00 32.73663 -117.20267 1076 ft 161 kts 284°
2026-05-04 00:00 32.74012 -117.21587 1843 ft 169 kts 292°
2026-05-04 00:00 32.74405 -117.22415 2138 ft 175 kts 300°
2026-05-04 00:00 32.75103 -117.23646 2713 ft 183 kts 303°
2026-05-04 00:01 32.75844 -117.24908 3255 ft 190 kts 302°
2026-05-04 00:01 32.76609 -117.26223 3759 ft 197 kts 302°
2026-05-04 00:01 32.77414 -117.27613 4338 ft 209 kts 302°
2026-05-04 00:01 32.78279 -117.29126 4929 ft 233 kts 301°
2026-05-04 00:02 32.79212 -117.30798 5483 ft 258 kts 301°
2026-05-04 00:02 32.80277 -117.32609 6166 ft 274 kts 303°
2026-05-04 00:02 32.81466 -117.34424 6927 ft 281 kts 305°
2026-05-04 00:02 32.82696 -117.36245 7731 ft 283 kts 304°
2026-05-04 00:03 32.83914 -117.38089 8547 ft 284 kts 303°
2026-05-04 00:03 32.85129 -117.39953 9345 ft 286 kts 303°
2026-05-04 00:03 32.86348 -117.41839 10073 ft 289 kts 302°
2026-05-04 00:03 32.87602 -117.43789 10422 ft 304 kts 302°
2026-05-04 00:04 32.88918 -117.45834 10842 ft 315 kts 303°
2026-05-04 00:04 32.90256 -117.47909 11486 ft 317 kts 303°
2026-05-04 00:04 32.91604 -117.50003 12188 ft 319 kts 303°
2026-05-04 00:04 32.92944 -117.52082 12911 ft 321 kts 303°
2026-05-04 00:05 32.94307 -117.54204 13653 ft 324 kts 302°
2026-05-04 00:05 32.95679 -117.56340 14374 ft 325 kts 302°
2026-05-04 00:05 32.97048 -117.58473 15120 ft 324 kts 301°
2026-05-04 00:05 32.98417 -117.60609 15820 ft 325 kts 301°